PICSAT (43132 NORAD) Tracking and Keplerian Element Data

This shows tracking and keplerian element data for the satellite.

Feedback or suggestion? Click here.




ElementValue
Catalog43132
NamePICSAT
Epoch Orbit9352
Epoch Day261.77874446
Epoch Year2019
RAAN329.388
Inclination97.4808
Eccentricity0.0008172
Argument of Perigee295.6426
Mean Anonmoly64.3967
Mean Motion15.23732079
Decay Rate8.9E-06
L11 43132U 18004X 19261.77874446 .00000890 00000-0 40024-4 0 9993
L22 43132 97.4808 329.3880 0008172 295.6426 64.3967 15.23732079 93529

Live tracking and technical data element details for PICSAT (NORAD 43132). PICSAT can be tracked NOW for your location showing map with azimuth and elevation plus other details from your city location.

Track the satellite on the map from your city or location and see movement details for azimuth, elevation, latitude, longitude, range, height, and movement on the map or in text.







IsCatalogInMostPopularTable: catalog: 43132, numindb: 438
Update: records affected: 1



GetName: 43132 PICSAT

Hit Count: updated at: Thu, 19 Sep 2019 17:51:32 GMT